Hourly Data Report for June 04, 2017

QUALICUM BEACH AIRPORT
BRITISH COLUMBIA

49°20'14.000" N
124°23'38.000" W
58.20 m
1026562
71766
VOQ

Download Data

Hourly Data (June 2017)
Hourly Data Report for June 4, 2017
TIME
LST
Temp Definition
°C
Dew Point Definition
°C
Rel Hum Definition
%
Precip. Amount Definition
mm

Wind Dir Definition
10's deg

Wind Spd Definition
km/h
Visibility Definition
km
Stn Press Definition
kPa
Hmdx Definition


Wind Chill Definition


Weather Definition


00:00 10.9 6.1 72 0.0 27 2   100.90     LegendNANA
01:00 10.7 5.7 71 0.0 29 7   100.91     LegendNANA
02:00 10.7 5.5 70 0.0 27 7   100.92     LegendNANA
03:00 10.5 5.7 72 0.0 27 8   100.95     LegendNANA
04:00 10.0 5.5 73 0.0 27 5   100.97     LegendNANA
05:00 9.9 5.3 73 0.0 28 8   101.00     LegendNANA
06:00 10.9 5.6 70 0.0 27 7   101.05     LegendNANA
07:00 12.8 5.5 61 0.0 28 8   101.08     LegendNANA
08:00 13.9 5.4 57 0.0 31 13   101.11     LegendNANA
09:00 15.0 5.6 53 0.0 32 10   101.13     LegendNANA
10:00 15.6 4.0 46 0.0 35 11   101.14     LegendNANA
11:00 16.3 5.4 48 0.0 1 8   101.13     LegendNANA
12:00 16.7 3.4 41 0.0 6 8   101.15     LegendNANA
13:00 17.6 -0.7 29 0.0 8 10   101.17     LegendNANA
14:00 17.6 -0.1 30 0.0 8 12   101.17     LegendNANA
15:00 18.2 1.7 33 0.0 7 9   101.17     LegendNANA
16:00 18.5 2.3 34 0.0 9 11   101.17     LegendNANA
17:00 18.3 3.5 37 0.0 9 10   101.18     LegendNANA
18:00 18.8 3.8 37 0.0 7 7   101.21     LegendNANA
19:00 18.2 4.7 41 0.0 5 4   101.25     LegendNANA
20:00 15.9 5.9 51 0.0 33 5   101.30     LegendNANA
21:00 14.5 4.5 51 0.0 28 9   101.33     LegendNANA
22:00 13.3 5.0 57 0.0 25 5   101.37     LegendNANA
23:00 12.4 5.4 62 0.0 25 5   101.39     LegendNANA

Notes on Data Quality.

Legend

  • E = Estimated
  • M = Missing
  • NA = Not Available*
  • [empty] = Indicates an unobserved value
Date modified: